EHI
0 0 0 0 0 0 0 0 0 0 0 0 0 0 0 0 0 0 0 0 0 0 0 0 0 0 0 0 0 0 0 0 0 0 0 0 0 0 0 0 0 0 0 0
0 0 0 0 0 0 0 0 0 0 0 0 0 0 0 0 0 0 0 0 0 0 0 0 0 0 0 0 0 0 0 0 0 0 0 0 0 0 0 0 0 0 0 0
0 0 0 0 0 0 0 0 0 0 0 0 0 0 0 0 0 0 0 0 0 0 0 0 0 0 0 0 0 0 0 0 0 0 0 0 0 0 0 0 0 0 0 0
0 0 0 0 0 0 0 0 0 0 0 0 0 0 0 0 0 0 0 0 0 0 0 0 0 0 0 0 0 0 0 0 0 0 0 0 0 0 0 0 0 0 0 0
0 0 0 0 0 0 0 0 0 0 0 0 0 0 0 0 0 0 0 0 0 0 0 0 0 0 0 0 0 0 0 0 0 0 0 0 0 0 0 0 0 0 0 0
0 0 0 0 0 0 0 0 0 0 0 0 0 0 0 0 0 0 0 0 0 0 0 0 0 0 0 0 0 0 0 0 0 0 0 0 0 0 0 0 0 0 0 0
0 0 0 0 0 0 0 0 0 0 0 0 0 0 0 0 0 0 0 0 0 0 0 0 0 0 0 0 0 0 0 0 0 0 0 0 0 0 0 0 0 0 0 0
0 0 0 0 0 0 0 0 0 0 0 0 0 0 0 0 0 0 0 0 0 0 0 0 0 0 0 0 0 0 0 0 0 0 0 0 0 0 0 0 0 0 0 0
0 0 0 0 0 0 0 0 0 0 0 0 0 0 0 0 0 0 0 0 0 0 0 0 0 0 0 0 0 0 0 0 0 0 0 0 0 0 0 0 0 0 0 0
0 0 0 0 0 0 0 0 0 0 0 0 0 0 0 0 0 0 0 0 0 0 0 0 0 0 0 0 0 0 0 0 0 0 0 0 0 0 0 0 0 0 0 0
0 0 0 0 0 0 0 0 0 0 0 0 0 0 0 0 0 0 0 0 0 0 0 0 0 0 0 0 0 0 0 0 0 0 0 0 0 0 0 0 0 0 0 0
0 0 0 0 0 0 0 0 0 0 0 0 0 0 0 0 0 0 0 0 0 0 0 0 0 0 0 0 0 0 0 0 0 0 0 0 0 0 0 0 0 0 0 0
0 0 0 0 0 0 0 0 0 0 0 0 0 0 0 0 0 0 0 0 0 0 0 0 0 0 0 0 0 0 0 0 0 0 0 0 0 0 0 0 0 0 0 0
0 0 0 0 0 0 0 0 0 0 0 0 0 0 0 0 0 0 0 0 0 0 0 0 0 0 0 0 0 0 0 0 0 0 0 0 0 0 0 0 0 0 0 0
0 0 0 0 0 0 0 0 0 0 0 0 0 0 0 0 0 0 0 0 0 0 0 0 0 0 0 0 0 0 0 0 0 0 0 0 0 0 0 0 0 0 0 0
0 0 0 0 0 0 0 0 0 0 0 0 0 0 0 0 0 0 0 0 0 0 0 0 0 0 0 0 0 0 0 0 0 0 0 0 0 0 0 0 0 0 0 0
0 0 0 0 0 0 0 0 0 0 0 0 0 0 0 0 0 0 0 0 0 0 0 0 0 0 0 0 0 0 0 0 0 0 0 0 0 0 0 0 0 0 0 0
0 0 0 0 0 0 0 0 0 0 0 0 0 0 0 0 0 0 0 0 0 0 0 0 0 0 0 0 0 0 0 0 0 0 0 0 0 0 0 0 0 0 0 0
0 0 0 0 0 0 0 0 0 0 0 0 0 0 0 0 0 0 0 0 0 0 0 0 0 0 0 0 0 0 0 0 0 0 0 0 0 0 0 0 0 0 0 0
0 0 0 0 0 0 0 0 0 0 0 0 0 0 0 0 0 0 0 0 0 0 0 0 0 0 0 0 0 0 0 0 0 0 0 0 0 0 0 0 0 0 0 0
0 0 0 0 0 0 0 0 0 0 0 0 0 0 0 0 0 0 0 0 0 0 0 0 0 0 0 0 0 0 0 0 0 0 0 0 0 0 0 0 0 0 0 0
0 0 0 0 0 0 0 0 0 0 0 0 0 0 0 0 0 0 0 0 0 0 0 0 0 0 0 0 0 0 0 0 0 0 0 0 0 0 0 0 0 0 0 0
0 0 0 0 0 0 0 0 0 0 0 0 0 0 0 0 0 0 0 0 0 0 0 0 0 0 0 0 0 0 0 0 0 0 0 0 0 0 0 0 0 0 0 0
0 0 0 0 0 0 0 0 0 0 0 0 0 0 0 0 0 0 0 0 0 0 0 0 0 0 0 0 0 0 0 0 0 0 0 0 0 0 0 0 0 0 0 0
0 0 0 0 0 0 0 0 0 0 0 0 0 0 0 0 0 0 0 0 0 0 0 0 0 0 0 0 0 0 0 0 0 0 0 0 0 0 0 0 0 0 0 0
0 0 0 0 0 0 0 0 0 0 0 0 0 0 0 0 0 0 0 0 0 0 0 0 0 0 0 0 0 0 0 0 0 0 0 0 0 0 0 0 0 0 0 0
0 0 0 0 0 0 0 0 0 0 0 0 0 0 0 0 0 0 0 0 0 0 0 0 0 0 0 0 0 0 0 0 0 0 0 0 0 0 0 0 0 0 0 0
Wind_Speed
2 2 2 1 1 2 3 5 5 4 4 6 5 4 5 5 5 6 6 7 6 6 6 6 7 7 7 7 7 7 7 8 8 8 7 8 8 8 8 8 8 7 7 6
2 2 2 1 1 2 2 3 3 2 4 5 3 2 3 4 5 5 6 6 6 6 6 6 6 6 6 7 7 6 7 7 7 8 8 8 8 7 8 8 8 8 8 7
0 1 2 4 6 5 3 4 5 5 6 2 2 3 3 3 4 5 5 5 5 5 5 5 5 4 5 5 5 6 7 7 7 7 8 8 8 8 8 7 8 8 8 8
3 1 3 6 3 6 5 5 6 5 4 4 5 3 3 3 3 4 5 5 5 4 4 4 3 3 3 4 5 6 6 7 7 7 7 7 7 8 7 6 6 6 7 8
3 1 6 5 4 6 5 5 7 7 5 4 2 2 4 3 2 3 3 3 3 3 3 3 3 3 3 4 4 5 5 6 6 6 6 7 7 7 6 6 6 6 6 8
4 2 5 6 3 5 4 5 6 9 8 5 5 1 4 3 2 2 3 2 3 3 2 3 3 2 2 3 4 4 4 4 5 5 6 6 6 5 5 5 5 6 7 7
4 4 9 6 4 7 4 9 5 9 8 8 8 7 4 2 1 1 2 3 3 2 2 3 3 1 2 2 2 2 3 4 5 5 5 5 5 5 5 5 6 7 7 7
5 3 9 5 9 9 11 3 5 8 8 8 7 4 3 2 1 2 3 3 3 3 4 3 2 1 1 2 1 1 3 4 5 6 5 5 5 6 6 6 7 7 7 7
10 9 5 8 8 6 6 5 6 8 7 8 6 4 4 2 1 2 2 3 2 3 4 4 2 1 1 1 1 2 3 3 4 5 5 5 5 6 5 6 5 5 6 6
5 8 6 8 5 3 6 6 6 7 7 8 7 6 4 3 2 1 2 2 2 3 4 4 4 2 1 0 2 3 2 2 2 3 4 4 4 4 4 5 5 5 5 5
6 7 4 5 9 8 6 5 6 6 7 8 7 6 5 3 3 2 2 2 2 2 3 4 4 2 1 1 3 3 2 1 1 2 2 2 3 3 3 2 2 3 3 3
9 8 7 7 8 9 9 8 9 8 6 5 6 6 5 4 3 2 2 1 2 2 3 3 3 2 1 1 3 3 2 1 1 1 1 1 1 2 3 2 5 6 5 3
6 5 6 2 4 9 10 10 9 10 9 7 5 6 5 4 3 2 2 1 2 3 3 3 2 2 1 0 2 3 2 2 2 2 1 1 0 1 2 3 4 5 7 7
4 5 3 4 6 8 9 9 8 7 7 7 6 5 4 4 3 3 3 3 2 2 3 2 2 2 2 0 1 2 2 3 3 2 2 2 1 1 1 1 2 3 4 6
8 7 5 4 4 6 6 7 7 7 6 5 5 5 5 5 5 4 3 2 1 2 2 2 2 3 2 1 1 2 2 2 2 2 2 2 2 1 1 1 1 1 2 3
7 5 4 5 7 8 7 8 9 9 8 7 6 6 6 6 5 4 3 2 2 3 3 2 3 3 2 1 1 1 2 3 3 2 2 2 2 2 1 1 1 1 1 1
9 8 7 6 7 8 9 10 10 10 8 8 8 7 6 5 4 4 4 3 4 4 3 3 3 3 2 1 1 2 2 2 3 2 2 2 2 3 2 2 2 2 2 2
10 10 9 9 9 9 9 9 9 9 9 9 7 6 7 7 7 7 5 3 2 3 4 4 3 3 2 2 1 2 2 2 2 2 3 3 3 3 3 3 3 3 2 2
8 8 8 8 8 9 9 9 9 9 8 7 8 8 8 8 7 6 4 3 4 5 5 4 4 3 3 3 2 2 2 2 2 3 3 3 3 3 3 4 4 4 3 3
7 7 7 7 7 7 8 8 8 7 7 8 7 7 7 7 6 6 5 5 6 6 5 3 3 3 3 3 2 1 2 3 3 3 3 3 3 4 4 4 4 4 4 4
7 6 7 7 7 7 7 8 8 8 8 8 9 9 9 7 6 6 5 5 6 6 5 6 4 3 3 3 3 2 2 3 3 3 3 4 4 4 4 4 4 4 4 4
3 4 5 6 6 5 5 6 7 7 7 7 8 7 7 6 6 6 6 6 6 5 4 4 4 5 6 4 3 3 3 3 3 3 4 4 4 4 4 5 5 4 4 4
2 2 3 4 5 4 3 4 6 6 7 8 8 9 8 7 6 6 6 6 5 7 5 5 7 9 8 4 3 3 4 4 4 4 4 4 4 4 5 5 5 5 4 5
4 3 2 2 3 4 2 2 3 4 5 6 6 7 6 5 4 6 6 4 6 8 5 7 10 10 8 3 4 4 4 4 4 4 4 4 4 4 4 5 5 5 5 6
5 5 5 5 4 1 0 0 1 1 2 2 3 4 5 5 6 5 4 6 8 7 5 7 11 10 6 4 4 5 4 5 5 4 4 4 4 4 5 5 5 5 5 5
5 4 3 3 2 1 1 1 1 0 1 1 2 2 3 3 4 4 3 5 7 7 6 5 5 6 4 5 5 5 5 5 5 5 5 5 5 5 4 5 6 5 5 5
4 3 3 3 3 3 2 1 1 1 1 2 2 2 2 2 3 4 4 4 4 5 5 5 4 5 5 5 5 5 5 5 5 5 5 5 4 5 5 6 5 5 5 5
Wind_Direction
83 88 115 110 135 139 133 162 166 213 235 265 279 289 301 313 325 337 339 342 348 346 344 348 354 355 357 358 0 4 13 17 12 9 14 19 21 22 24 30 32 30 33 31
49 39 71 49 197 151 148 163 178 209 259 255 261 275 301 319 331 335 331 332 337 343 346 346 347 350 354 357 358 6 17 15 9 12 18 19 18 21 27 28 26 30 29 26
140 352 20 279 222 192 195 192 174 200 235 235 241 269 284 297 311 314 319 324 332 333 329 326 330 341 350 349 357 12 17 13 12 14 19 17 20 26 26 23 26 29 26 23
113 77 262 249 217 178 187 217 202 214 226 206 220 249 276 268 279 301 314 322 324 323 323 322 327 339 349 1 10 13 14 12 10 12 17 17 23 24 20 20 25 26 24 20
117 191 282 282 197 170 174 245 208 199 212 203 173 14 314 275 264 270 292 300 295 295 296 310 324 334 3 12 11 16 13 10 7 11 17 21 21 16 13 20 26 24 22 23
127 178 247 251 197 153 112 269 218 183 189 172 131 127 270 271 280 296 319 314 308 312 318 327 327 344 18 12 14 11 5 7 10 18 25 23 17 15 13 22 24 24 28 26
158 224 261 243 150 120 152 242 204 177 177 167 179 202 230 268 264 315 334 333 336 339 334 317 322 9 11 2 1 356 22 29 25 22 28 26 23 21 20 24 28 27 26 24
155 203 260 190 146 181 211 212 169 174 175 178 199 215 227 229 243 335 344 344 348 345 333 327 341 34 1 336 321 76 62 47 35 27 28 29 30 27 25 26 31 25 23 21
187 211 233 187 194 204 171 174 180 175 179 175 181 196 195 200 229 312 331 336 339 337 332 337 349 12 327 299 143 114 81 57 42 39 34 31 35 31 28 26 30 25 25 22
243 260 237 220 230 205 186 187 181 172 166 166 175 184 186 193 227 284 315 327 338 348 347 337 338 346 299 245 143 129 112 77 53 49 40 35 36 35 36 28 26 25 23 17
250 267 266 237 211 199 188 176 158 161 168 173 170 179 183 194 219 244 278 305 327 331 322 316 327 340 2 116 135 135 136 119 84 66 56 42 38 32 31 21 22 28 16 9
218 216 191 227 205 177 169 176 173 165 169 176 176 181 180 193 211 222 251 287 317 324 320 318 328 336 352 126 149 151 155 164 163 146 97 54 25 10 17 24 29 38 37 37
203 193 187 235 178 173 178 180 174 173 172 176 184 181 176 187 203 213 235 262 292 304 306 311 324 333 327 183 163 171 185 191 185 181 180 196 242 359 346 350 15 28 29 36
186 139 173 199 189 185 182 178 171 174 176 173 171 171 169 177 190 209 233 249 269 292 301 306 310 315 315 287 172 185 193 198 189 193 194 202 212 223 237 317 342 342 2 25
196 190 198 189 165 167 166 153 158 174 177 176 172 172 175 184 202 221 232 242 263 287 293 303 304 304 314 312 188 195 193 199 194 193 196 203 207 206 210 221 260 305 333 356
177 178 166 162 173 170 163 168 176 186 184 182 184 193 195 196 206 225 233 216 220 257 269 272 281 288 304 300 226 209 218 219 193 187 193 197 200 200 209 217 235 260 278 285
153 179 189 193 190 186 186 184 185 186 183 187 197 197 189 186 203 230 237 230 227 240 249 247 258 280 290 270 224 222 228 239 214 191 202 206 207 211 211 211 224 239 247 237
192 189 182 182 183 188 194 191 187 183 186 196 190 178 181 189 206 222 229 226 233 261 261 246 247 265 274 266 232 215 216 225 217 216 219 217 216 213 208 215 226 234 243 238
198 192 191 192 185 182 186 187 190 191 189 180 177 188 197 204 209 215 202 195 216 246 258 247 248 248 258 260 238 213 218 229 235 233 227 230 226 219 216 220 227 228 224 219
191 189 188 191 183 179 187 187 183 186 187 179 182 190 202 213 207 199 191 209 221 221 231 236 236 240 249 255 236 219 230 235 238 242 235 228 228 229 224 224 227 226 220 216
182 181 181 183 187 192 190 182 178 188 189 179 183 196 206 211 197 183 184 228 247 227 226 233 225 229 235 237 234 227 237 241 241 239 237 234 233 233 230 228 228 227 223 218
162 173 181 180 181 193 195 183 184 188 184 187 197 199 198 203 197 196 211 220 236 217 206 217 221 228 231 232 219 228 239 244 246 241 238 234 231 232 233 230 230 230 226 220
96 129 152 170 182 186 171 177 188 187 189 194 196 196 199 202 188 186 228 232 219 224 213 219 226 234 239 226 216 227 238 244 247 244 241 237 233 231 233 234 230 228 226 222
57 63 78 103 113 116 146 207 198 197 201 204 205 202 195 197 213 220 222 232 208 212 214 227 233 238 235 211 215 225 234 241 245 247 246 244 240 236 235 234 234 231 227 224
49 50 54 67 79 83 240 188 136 165 189 214 227 216 204 196 207 221 210 220 226 224 225 237 240 238 222 207 215 223 229 234 238 239 240 242 243 241 239 235 232 232 228 224
43 46 45 50 53 33 29 73 102 148 173 233 260 240 223 219 223 226 218 221 224 222 220 226 228 228 213 214 220 226 230 240 249 245 240 242 243 243 243 241 239 232 229 227
34 36 38 35 27 24 30 46 45 302 236 224 255 263 244 231 223 224 225 224 221 221 223 223 217 214 215 218 223 227 228 231 233 236 238 239 239 239 241 242 239 236 230 227